Flag for Austria Weather past 2 weeks in Vöcklabruck, Upper Austria, Austria

Now
78 °F

Passing clouds.


Feels Like: 79 °F
Forecast: 62 / 90 °F
Wind: 2 mph from East

Location: Kremsmuenster

Current Time: Aug 5, 2015 at 12:30:55 PM

Latest Report: Aug 5, 2015 at 11:00 AM


Visibility: 37 mi

Pressure: 30.07 "Hg

Humidity: 54%

Dew point: 60 °F

Location of VöcklabruckLocation

Historic Weather in Vöcklabruck — Graph

°F

Vöcklabruck temperature yesterday

Maximum temperature yesterday: 89 °F (at 5:00 PM)
Minimum temperature yesterday: 60 °F (at 7:00 AM)
Average temperature yesterday: 75 °F

Past Weeks' High & Low Weather Summary

 TemperatureHumidityPressure
High96 °F (Jul 22, 5:00 PM)98% (Aug 3, 7:00 AM)30.15 "Hg (Aug 3, 7:00 AM)
Low54 °F (Aug 1, 7:00 AM)30% (Jul 22, 6:00 PM)29.66 "Hg (Jul 25, 3:00 AM)
Average70 °F63%29.92 "Hg
* Reported Jul 21 11:00 AM — Aug 5 11:00 AM, Vöcklabruck, Weather by CustomWeather, © 2015

Note: Actual official high and low records may vary slightly from our data, if they occured in-between our weather recording intervals... More about our weather records

Advertising

Vöcklabruck weather history for previous 24 hours

 ConditionsComfort  
Time TempWeatherWind HumidityBarometerVisibility
11:00 AM
Wed, Aug 5
78 °FPassing clouds.2 mph54%30.07 "Hg37 mi
10:00 AM74 °FMild.1 mph58%30.08 "HgN/A
9:00 AM73 °FMild.1 mph64%30.08 "HgN/A
8:00 AM70 °FMild.2 mph69%30.09 "HgN/A
7:00 AM70 °FPassing clouds.3 mph68%30.09 "Hg11 mi
5:00 AM70 °FMild.3 mph65%30.09 "HgN/A
4:00 AM70 °FMild.3 mph65%30.09 "HgN/A
3:00 AM71 °FMild.2 mph63%30.06 "HgN/A
2:00 AM74 °FMild.3 mph56%30.06 "HgN/A
1:00 AM75 °FMild.6 mph52%30.04 "HgN/A
12:00 AM76 °FMild.7 mph53%30.01 "HgN/A
10:00 PM
Tue, Aug 4
77 °FMild.6 mph57%29.93 "HgN/A
9:00 PM78 °FWarm.2 mph51%29.90 "HgN/A
8:00 PM83 °FScattered clouds.3 mph42%29.88 "Hg31 mi
7:00 PM86 °FPleasantly warm.5 mph37%29.86 "HgN/A
6:00 PM88 °FHot.2 mph36%29.85 "HgN/A
5:00 PM89 °FPassing clouds.3 mph34%29.85 "Hg37 mi
4:00 PM89 °FHot.5 mph35%29.85 "HgN/A
3:00 PM89 °FHot.1 mph36%29.85 "HgN/A
2:00 PM86 °FPleasantly warm.2 mph40%29.88 "HgN/A
1:00 PM83 °FWarm.2 mph48%29.89 "HgN/A
12:00 PM80 °FWarm.2 mph57%29.91 "HgN/A
Weather by CustomWeather, © 2015

See weather overviewHow to use our weather pages